Regional Weather Roundup
Issued by NWS

Home | Current Version | Previous Version | Graphics & Text | Print | Product List | Glossary On
Versions: 1 2 3 4 5 6 7 8 9 10 11 12 13 14 15 16 17 18 19 20 21 22 23 24 25 26 27 28 29 30 31 32 33 34 35 36 37 38 39 40 41 42 43 44 45 46 47 48 49 50
000
ASUS45 KPSR 231910
RWRAZ

ARIZONA HOURLY REGIONAL WEATHER ROUNDUP
NATIONAL WEATHER SERVICE PHOENIX AZ
1200 PM MST SUN APR 23 2017

NOTE: FAIR INDICATES FEW OR NO CLOUDS BELOW 12,000 FEET WITH NO
SIGNIFICANT WEATHER AND/OR OBSTRUCTIONS TO VISIBILITY.

AZZ001>003-036-232000-
NORTHWEST ARIZONA

CITY           SKY/WX    TMP DP  RH WIND       PRES   REMARKS
BULLHEAD CITY  MOSUNNY   88  30  12 SW6       29.72F
KINGMAN        PTSUNNY   83  25  12 S30G39    29.86F
$$

AZZ004>008-015-016-018-232000-
NORTH CENTRAL ARIZONA

CITY           SKY/WX    TMP DP  RH WIND       PRES   REMARKS
GRAND CANYON   MOSUNNY   70  17  13 SW22G37   30.03F
WILLIAMS       PTSUNNY   66  19  16 SW18G31   30.06F
PRESCOTT       MOSUNNY   75  23  14 S15G21    30.00F
FLAGSTAFF      SUNNY     67  21  17 SW25G35   30.07F
PAYSON         SUNNY     73  30  20 S8G16     30.07F
PAGE           PTSUNNY   71  22  15 N6        29.89F
$$

AZZ009>014-017-232000-
NORTHEAST ARIZONA

CITY           SKY/WX    TMP DP  RH WIND       PRES   REMARKS
WINSLOW        SUNNY     81  18   9 SW20G35   29.97F
SAINT JOHNS    SUNNY     81  13   7 W25G32    30.02F
WINDOW ROCK    SUNNY     73  16  11 SW21G33   30.08F
SHOW LOW       SUNNY     68  25  19 SW18G37   30.10F
$$

AZZ540-542>544-546-548-232000-
GREATER PHOENIX AREA

CITY           SKY/WX    TMP DP  RH WIND       PRES   REMARKS
PHOENIX        PTSUNNY   92  29  10 E6        29.79F
BUCKEYE        SUNNY     90  32  12 SE7       29.80F
GLENDALE       MOSUNNY   91  28  10 E6        29.82F
LUKE AFB       SUNNY     91  25   9 SE7       29.79F HAZE
DEER VALLEY    SUNNY     90  29  11 SE12      29.82F
SCOTTSDALE     SUNNY     91  28  10 S8        29.84F
MESA-FALCON    MOSUNNY  N/A N/A N/A SW12      29.83F
MESA-GATEWAY   MOSUNNY   90  28  11 S7        29.84F
CHANDLER       SUNNY     91  28  10 E7        29.82F
$$

AZZ539-553-232000-
SOUTHWEST MARICOPA COUNTY AND PINAL COUNTY

CITY           SKY/WX    TMP DP  RH WIND       PRES   REMARKS
CASA GRANDE    SUNNY     91  27  10 VRB7      29.83F
GILA BEND      FAIR      94  21   7 N5        29.77F
$$

AZZ503-504-507>509-232000-
SOUTHEAST ARIZONA

CITY           SKY/WX    TMP DP  RH WIND       PRES   REMARKS
TUCSON         SUNNY     92  22   8 CALM      29.90F
DAVIS-MONTHAN  SUNNY     91  20   7 E9        29.89F
NOGALES        SUNNY     92  16   6 S10G18    29.96F
SIERRA VISTA   SUNNY     87  16   7 W7        30.02F
DOUGLAS        SUNNY     82  29  14 VRB7      30.01F
SAFFORD        SUNNY     80  34  19 S16G23    30.00F
$$

AZZ532-232000-
SOUTHWEST ARIZONA

CITY           SKY/WX    TMP DP  RH WIND       PRES   REMARKS
YUMA           SUNNY     91  29  11 W6        29.75F
$$

CAZ041-043-047-048-061-525>527-560>570-232000-
SOUTHERN CALIFORNIA

CITY           SKY/WX    TMP DP  RH WIND       PRES   REMARKS
DOWNTOWN L.A.  SUNNY     80  50  34 VRB3      29.86S
L.A. AIRPORT   MOSUNNY   71  58  63 W14       29.88R
SAN DIEGO      PTSUNNY   67  56  67 S8        29.92S
BURBANK        SUNNY     76  47  35 VRB7      29.87S
ONTARIO        MOSUNNY   77  46  33 VRB7      29.86F
RIVERSIDE      SUNNY     78  44  29 VRB3      29.86F
PALM SPRINGS   SUNNY     94  32  11 VRB7      29.75F
EL CENTRO NAS  MOSUNNY   95  21   7 SW8       29.74F
IMPERIAL       PTSUNNY   94  34  12 S10       29.73F
BLYTHE         CLOUDY    96  19   6 SW15G25   29.73F
NEEDLES        MOSUNNY   94  24   8 S14G22    29.73F
$$

NVZ020-UTZ003-232000-
SOUTHERN NEVADA-UTAH

CITY           SKY/WX    TMP DP  RH WIND       PRES   REMARKS
LAS VEGAS      MOSUNNY   86  19   8 SW21G29   29.71F
SALT LAKE CITY PTSUNNY   64  37  36 NW13      29.80F
$$

NMZ009-TXZ055-232000-
NEW MEXICO-WEST TEXAS

CITY           SKY/WX    TMP DP  RH WIND       PRES   REMARKS
ALBUQUERQUE    MOSUNNY   65  33  30 SW8       30.12F
EL PASO        MOSUNNY   71  28  20 SE7G22    30.11F
$$


........................KEY........................
SKY/WX - SKY CONDITION/WEATHER
TMP    - TEMPERATURE IN FAHRENHEIT
DP     - DEW POINT IN FAHRENHEIT
RH     - RELATIVE HUMIDITY IN PERCENT
WIND   - DIRECTION AND SPEED IN MILES PER HOUR (MPH)
VRB    - VARIABLE WIND DIRECTION
PRES   - MEAN SEA LEVEL PRESSURE IN INCHES OF MERCURY
         F - FALLING PRESSURE   R - RISING PRESSURE
         S - STEADY PRESSURE
VSB    - VISIBILITY IN MILES
HX     - HEAT INDEX IN FAHRENHEIT
WCI    - WIND CHILL INDEX IN FAHRENHEIT
TC     - TEMPERATURE IN CELSIUS WHICH IS ALSO KNOWN AS
         TEMPERATURE IN CENTIGRADE
AFB    - AIR FORCE BASE
         LUKE AFB IS LUKE AIR FORCE BASE
         DAVIS-MONTHAN IS DAVIS-MONTHAN AIR FORCE BASE
NAS    - NAVAL AIR STATION
         EL CENTRO NAS IS EL CENTRO NAVAL AIR STATION
N/A    - NOT AVAILABLE




USA.gov is the U.S. government's official web portal to all federal, state and local government web resources and services.